Preview of NWS' New Version of Forecast
This preview is not operational and should not be used for support decisions.

Regional Weather Roundup (RWR)

Issued by National Weather Service (NWS)

                            
000
ASUS45 KCYS 241710
RWRWY 

WYOMING REGIONAL WEATHER ROUNDUP
NATIONAL WEATHER SERVICE CHEYENNE WY
1100 AM MDT SAT AUG 24 2019

NOTE:  "FAIR" INDICATES FEW OR NO CLOUDS BELOW 12,000 FEET
WITH NO SIGNIFICANT WEATHER AND/OR OBSTRUCTIONS TO VISIBILITY.

WYZ001-241800-
YELLOWSTONE NATIONAL PARK
  
CITY           SKY/WX    TMP DP  RH WIND       PRES   REMARKS
LK YELLOWSTONE   N/A     59  44  57 VRB5      30.25S                  
W YELLOWSTONE  NOT AVBL                                               

$$
WYZ002>013-054>058-071-098>099-241800-
NORTHERN WYOMING
  
CITY           SKY/WX    TMP DP  RH WIND       PRES   REMARKS
JACKSON        FAIR      62  39  42 VRB5      30.18F                  
CODY           FAIR      75  49  39 MISG      30.01S                  
GREYBULL       FAIR      74  49  41 SE6       29.96F                  
WORLAND        FAIR      72  55  55 NE6       29.97F                  
SHERIDAN       FAIR      77  51  40 CALM      29.92F                  
BUFFALO        FAIR      75  47  36 MISG        N/A                   
GILLETTE       FAIR      71  55  56 S5        29.95S                  
HULETT         FAIR      72  59  64 W10       29.97R                  
NEWCASTLE      FAIR      72  52  49 SE8G16    29.97F                  

$$
WYZ014>020-022>026-101>103-241800-
CENTRAL WYOMING
  
CITY           SKY/WX    TMP DP  RH WIND       PRES   REMARKS
BIG PINEY      FAIR      68  32  26 E5        30.22S                  
PINEDALE       FAIR      64  36  34 CALM      30.23S                  
DUBOIS         FAIR      68  32  26 W18G28    30.15S                  
LANDER         FAIR      75  42  30 VRB3      30.07R                  
RIVERTON       FAIR      71  43  36 VRB5      30.07F                  
CASPER         FAIR      74  47  38 SW14G22   30.04S                  
DOUGLAS        FAIR      75  48  38 NW15G23   30.01F                  

$$
WYZ021-027>030-104>119-241800-
SOUTHERN WYOMING
  
CITY           SKY/WX    TMP DP  RH WIND       PRES   REMARKS
EVANSTON       FAIR      74  32  21 SW16      30.24R                  
KEMMERER       FAIR      72  30  21 W15G22    30.23F                  
ROCK SPRINGS   FAIR      70  33  25 W12       30.20S                  
DIXON          FAIR      68  32  25 S9        30.22S                  
RAWLINS        FAIR      71  38  29 W20G26    30.17S                  
SARATOGA       FAIR      73  32  21 W21       30.19S                  
LARAMIE        FAIR      71  36  27 NW17G26   30.17R                  
CHEYENNE       FAIR      74  40  29 N18G29    30.07S                  
TORRINGTON     FAIR      71  59  65 CALM      29.97S                  
PINE BLUFFS    FAIR      66  55  68 S5        30.05S                  

$$